Weather History for Spokane Felts, WA

Change the Weather History Date:

Sunday, May 6, 2012

  Actual Average Record
Temperature  
Mean Temperature 49 °F 52 °F  
Max Temperature 62 °F 65 °F 84 °F (2013)
Min Temperature 35 °F 39 °F 30 °F (1999)
Degree Days  
Heating Degree Days 16 13  
Month to date heating degree days 109 82  
Since 1 July heating degree days 5743 5937  
Cooling Degree Days 0 0  
Month to date cooling degree days 0 0  
Year to date cooling degree days 1 0  
Moisture  
Dew Point 31 °F    
Average Humidity 56    
Maximum Humidity 82    
Minimum Humidity 29    
Precipitation  
Precipitation 0.00 in 0.05 in 0.29 in (2003)
Month to date precipitation 0.47 0.25  
Year to date precipitation 10.01 6.39  
Sea Level Pressure  
Sea Level Pressure 30.41 in    
Wind  
Wind Speed 3 mph (WNW)    
Max Wind Speed 12 mph    
Max Gust Speed 16 mph    
Visibility 10 miles    
Events      
T = Trace of Precipitation, MM = Missing Value Source: NWS Daily Summary

Daily Weather History Graph

Daily Weather History Graph

Search for Another Location

Airport:

Trip Planner

Search our weather history database for the weather conditions in past years. The results will help you decide how hot, cold, wet, or windy it might be!

Date:

Astronomy

May. 06, 2012 Rise Set
Actual Time 5:23 AM PDT 8:09 PM PDT
Civil Twilight 4:47 AM PDT 8:44 PM PDT
Nautical Twilight 4:03 AM PDT 9:30 PM PDT
Astronomical Twilight 3:09 AM PDT 10:23 PM PDT
Moon 9:25 PM PDT (5/6) 5:33 AM PDT (5/6)
Length of Visible Light 15h 56m
Length of Day
14h 46m
Full, 99% of the Moon is Illuminated
May 6
Full
May 12
Last Quarter
May 20
New
May 28
First Quarter
Jun 4
Full

Hourly Weather History & Observations

Time (PDT) Temp. Windchill Dew Point Humidity Pressure Visibility Wind Dir Wind Speed Gust Speed Precip Events Conditions
12:53 AM 46.4 °F 45.2 °F 28.4 °F 50% 30.37 in 10.0 mi Variable 3.5 mph - N/A   Overcast
1:53 AM 45.0 °F - 28.9 °F 53% 30.38 in 10.0 mi Calm Calm - N/A   Overcast
2:53 AM 44.1 °F - 30.9 °F 60% 30.40 in 10.0 mi Calm Calm - N/A   Overcast
3:53 AM 43.0 °F - 30.9 °F 62% 30.40 in 10.0 mi Calm Calm - N/A   Overcast
4:53 AM 37.9 °F - 30.9 °F 76% 30.41 in 10.0 mi Calm Calm - N/A   Clear
5:53 AM 36.0 °F - 30.9 °F 82% 30.43 in 10.0 mi Calm Calm - N/A   Partly Cloudy
6:53 AM 41.0 °F - 32.0 °F 70% 30.44 in 10.0 mi Calm Calm - N/A   Clear
7:53 AM 45.0 °F 42.6 °F 30.9 °F 58% 30.45 in 10.0 mi WSW 4.6 mph - N/A   Clear
8:53 AM 48.0 °F - 30.0 °F 50% 30.45 in 10.0 mi Calm Calm - N/A   Clear
9:53 AM 50.0 °F - 32.0 °F 50% 30.45 in 10.0 mi West 3.5 mph - N/A   Clear
10:53 AM 53.1 °F - 33.1 °F 47% 30.45 in 10.0 mi WNW 5.8 mph - N/A   Clear
11:53 AM 55.9 °F - 33.1 °F 42% 30.45 in 10.0 mi Variable 5.8 mph - N/A   Partly Cloudy
12:53 PM 57.9 °F - 30.9 °F 36% 30.43 in 10.0 mi Variable 4.6 mph - N/A   Mostly Cloudy
1:53 PM 60.1 °F - 30.9 °F 33% 30.43 in 10.0 mi West 10.4 mph - N/A   Mostly Cloudy
2:53 PM 60.1 °F - 28.9 °F 31% 30.42 in 10.0 mi SSW 6.9 mph - N/A   Mostly Cloudy
3:53 PM 60.1 °F - 28.9 °F 31% 30.40 in 10.0 mi Variable 5.8 mph - N/A   Clear
4:53 PM 60.1 °F - 28.0 °F 30% 30.39 in 10.0 mi Calm Calm - N/A   Partly Cloudy
5:53 PM 61.0 °F - 30.0 °F 31% 30.39 in 10.0 mi WNW 3.5 mph - N/A   Clear
6:53 PM 59.0 °F - 30.9 °F 35% 30.38 in 10.0 mi West 5.8 mph - N/A   Clear
7:53 PM 53.1 °F - 34.0 °F 48% 30.38 in 10.0 mi Calm Calm - N/A   Clear
8:53 PM 48.0 °F - 33.1 °F 56% 30.39 in 10.0 mi Calm Calm - N/A   Clear
9:53 PM 45.0 °F - 36.0 °F 71% 30.40 in 10.0 mi Calm Calm - N/A   Clear
10:53 PM 43.0 °F 40.3 °F 35.1 °F 74% 30.39 in 10.0 mi NNE 4.6 mph - N/A   Clear
11:53 PM 44.1 °F 42.5 °F 34.0 °F 68% 30.39 in 10.0 mi NE 3.5 mph - N/A   Clear